When you browse on this site, cookies collect data to enhance your experience and personalize the content and advertising you see.
Visit our Privacy Policy to learn more. By continuing to use the site, you agree to this use of cookies and data.
  • In Belgien
  • Länderverzeichnis
  • Für 7 Tage
  • Wassertemperatur
  • Wetterkarte
  • Widgets
  • user-avatar
    Anmelden

    Stündliche Wetter Puerto Ayacucho

    Heute, 6 April, Montag

    Zeit Temperatur Niederschläge Wind Luftdruck Luftfeuchtigkeit
    00:00 +27°C° 0 mm 1 m/S 750 mmHg 88%
    01:00 +27°C° 0 mm 1 m/S 750 mmHg 89%
    02:00 +27°C° 0 mm 1 m/S 750 mmHg 89%
    03:00 +27°C° 0 mm 1 m/S 750 mmHg 89%
    04:00 +27°C° 0 mm 1 m/S 750 mmHg 89%
    05:00 +27°C° 0 mm 1 m/S 750 mmHg 88%
    06:00 +28°C° 0 mm 1 m/S 751 mmHg 87%
    07:00 +28°C° 0 mm 1 m/S 752 mmHg 85%
    08:00 +30°C° 0.5 mm 1 m/S 752 mmHg 79%
    09:00 +31°C° 0.5 mm 1 m/S 752 mmHg 72%
    10:00 +33°C° 0.5 mm 1 m/S 752 mmHg 65%
    11:00 +34°C° 0.2 mm 1 m/S 751 mmHg 61%
    12:00 +35°C° 0.2 mm 1 m/S 750 mmHg 57%
    13:00 +36°C° 0.2 mm 1 m/S 749 mmHg 53%
    14:00 +35°C° 0.4 mm 1 m/S 749 mmHg 56%
    15:00 +35°C° 0.4 mm 1 m/S 749 mmHg 59%
    16:00 +34°C° 0.4 mm 1 m/S 748 mmHg 63%
    17:00 +33°C° 0.1 mm 1 m/S 749 mmHg 68%
    18:00 +31°C° 0.1 mm 1 m/S 749 mmHg 74%
    19:00 +30°C° 0.1 mm 2 m/S 750 mmHg 80%
    20:00 +29°C° 1 mm 2 m/S 750 mmHg 83%
    21:00 +29°C° 1 mm 2 m/S 751 mmHg 85%
    22:00 +28°C° 1 mm 2 m/S 751 mmHg 88%
    23:00 +28°C° 0.5 mm 2 m/S 751 mmHg 89%

    Morgen, 7 April, Dienstag

    Zeit Temperatur Niederschläge Wind Luftdruck Luftfeuchtigkeit
    00:00 +28°C° 0.5 mm 2 m/S 750 mmHg 90%
    01:00 +27°C° 0.5 mm 2 m/S 750 mmHg 90%
    02:00 +27°C° 0 mm 1 m/S 750 mmHg 90%
    03:00 +27°C° 0 mm 1 m/S 750 mmHg 90%
    04:00 +27°C° 0 mm 1 m/S 750 mmHg 90%
    05:00 +27°C° 0 mm 1 m/S 750 mmHg 88%
    06:00 +28°C° 0 mm 1 m/S 751 mmHg 86%
    07:00 +26°C° 0 mm 0 m/S 752 mmHg 84%
    08:00 +28°C° 0 mm 0 m/S 752 mmHg 76%
    09:00 +30°C° 0 mm 0 m/S 752 mmHg 68%
    10:00 +33°C° 0 mm 0 m/S 752 mmHg 59%
    11:00 +35°C° 0 mm 1 m/S 751 mmHg 56%
    12:00 +36°C° 0 mm 1 m/S 750 mmHg 52%
    13:00 +37°C° 0 mm 1 m/S 749 mmHg 49%
    14:00 +37°C° 0.2 mm 1 m/S 749 mmHg 49%
    15:00 +37°C° 0.2 mm 1 m/S 748 mmHg 50%
    16:00 +36°C° 0.2 mm 1 m/S 748 mmHg 51%
    17:00 +35°C° 0 mm 1 m/S 748 mmHg 57%
    18:00 +33°C° 0 mm 1 m/S 749 mmHg 64%
    19:00 +32°C° 0 mm 1 m/S 749 mmHg 70%
    20:00 +31°C° 0.1 mm 1 m/S 749 mmHg 73%
    21:00 +30°C° 0.1 mm 1 m/S 750 mmHg 76%
    22:00 +30°C° 0.1 mm 1 m/S 750 mmHg 79%
    23:00 +29°C° 0 mm 1 m/S 750 mmHg 80%

    übermorgen, 8 April, Mittwoch

    Zeit Temperatur Niederschläge Wind Luftdruck Luftfeuchtigkeit
    00:00 +29°C° 0 mm 1 m/S 749 mmHg 81%
    01:00 +29°C° 0 mm 2 m/S 749 mmHg 83%
    02:00 +29°C° 0.1 mm 2 m/S 749 mmHg 83%
    03:00 +28°C° 0.1 mm 2 m/S 749 mmHg 84%
    04:00 +28°C° 0.1 mm 1 m/S 749 mmHg 85%
    05:00 +29°C° 0.1 mm 1 m/S 749 mmHg 83%
    06:00 +29°C° 0.1 mm 1 m/S 750 mmHg 82%
    07:00 +30°C° 0.1 mm 1 m/S 750 mmHg 80%
    08:00 +31°C° 0.2 mm 1 m/S 751 mmHg 74%
    09:00 +33°C° 0.2 mm 1 m/S 751 mmHg 68%
    10:00 +34°C° 0.2 mm 1 m/S 751 mmHg 62%
    11:00 +35°C° 0.2 mm 1 m/S 750 mmHg 59%
    12:00 +34°C° 0.2 mm 0 m/S 749 mmHg 56%
    13:00 +35°C° 0.2 mm 0 m/S 749 mmHg 53%
    14:00 +36°C° 0.1 mm 1 m/S 748 mmHg 53%
    15:00 +36°C° 0.1 mm 1 m/S 748 mmHg 54%
    16:00 +36°C° 0.1 mm 1 m/S 747 mmHg 54%
    17:00 +35°C° 0.3 mm 2 m/S 748 mmHg 62%
    18:00 +32°C° 0.3 mm 2 m/S 748 mmHg 70%
    19:00 +30°C° 0.3 mm 3 m/S 749 mmHg 78%
    20:00 +29°C° 0.2 mm 2 m/S 749 mmHg 80%
    21:00 +29°C° 0.2 mm 2 m/S 749 mmHg 82%
    22:00 +29°C° 0.2 mm 2 m/S 750 mmHg 84%
    23:00 +28°C° 0.2 mm 1 m/S 750 mmHg 85%

    9 April, Donnerstag

    Zeit Temperatur Niederschläge Wind Luftdruck Luftfeuchtigkeit
    00:00 +28°C° 0.2 mm 1 m/S 749 mmHg 86%
    01:00 +28°C° 0.2 mm 1 m/S 749 mmHg 88%
    02:00 +27°C° 0.4 mm 1 m/S 749 mmHg 89%
    03:00 +27°C° 0.4 mm 2 m/S 749 mmHg 90%
    04:00 +27°C° 0.4 mm 2 m/S 749 mmHg 91%
    05:00 +27°C° 0.1 mm 1 m/S 749 mmHg 89%
    06:00 +27°C° 0.1 mm 1 m/S 750 mmHg 87%
    07:00 +28°C° 0.1 mm 1 m/S 750 mmHg 85%
    08:00 +30°C° 0.2 mm 2 m/S 751 mmHg 76%
    09:00 +32°C° 0.2 mm 2 m/S 751 mmHg 67%
    10:00 +35°C° 0.2 mm 3 m/S 751 mmHg 58%
    11:00 +35°C° 0.2 mm 3 m/S 750 mmHg 59%
    12:00 +35°C° 0.2 mm 3 m/S 750 mmHg 59%
    13:00 +35°C° 0.2 mm 3 m/S 749 mmHg 59%
    14:00 +34°C° 0.5 mm 3 m/S 749 mmHg 64%
    15:00 +34°C° 0.5 mm 3 m/S 748 mmHg 68%
    16:00 +33°C° 0.5 mm 3 m/S 748 mmHg 73%
    17:00 +31°C° 0.4 mm 3 m/S 749 mmHg 77%
    18:00 +30°C° 0.4 mm 2 m/S 749 mmHg 82%
    19:00 +28°C° 0.4 mm 2 m/S 750 mmHg 87%
    20:00 +28°C° 0 mm 2 m/S 750 mmHg 87%
    21:00 +28°C° 0 mm 2 m/S 751 mmHg 88%
    22:00 +27°C° 0 mm 2 m/S 751 mmHg 89%
    23:00 +27°C° 0 mm 2 m/S 751 mmHg 89%

    10 April, Freitag

    Zeit Temperatur Niederschläge Wind Luftdruck Luftfeuchtigkeit
    00:00 +27°C° 0 mm 2 m/S 750 mmHg 90%
    01:00 +27°C° 0 mm 2 m/S 750 mmHg 91%
    02:00 +27°C° 0.2 mm 2 m/S 750 mmHg 91%
    03:00 +26°C° 0.2 mm 2 m/S 750 mmHg 92%
    04:00 +26°C° 0.2 mm 2 m/S 750 mmHg 93%
    05:00 +27°C° 0.4 mm 2 m/S 751 mmHg 91%
    06:00 +27°C° 0.4 mm 2 m/S 751 mmHg 89%
    07:00 +27°C° 0.4 mm 2 m/S 752 mmHg 87%
    08:00 +29°C° 0.6 mm 2 m/S 752 mmHg 82%
    09:00 +30°C° 0.6 mm 2 m/S 752 mmHg 77%
    10:00 +31°C° 0.6 mm 2 m/S 752 mmHg 73%
    11:00 +34°C° 0.4 mm 2 m/S 751 mmHg 66%
    12:00 +34°C° 0.4 mm 1 m/S 750 mmHg 60%
    13:00 +35°C° 0.4 mm 1 m/S 750 mmHg 54%
    14:00 +34°C° 0.2 mm 1 m/S 749 mmHg 58%
    15:00 +34°C° 0.2 mm 1 m/S 749 mmHg 61%
    16:00 +33°C° 0.2 mm 1 m/S 748 mmHg 65%
    17:00 +32°C° 0.2 mm 1 m/S 749 mmHg 71%
    18:00 +30°C° 0.2 mm 2 m/S 749 mmHg 77%
    19:00 +29°C° 0.2 mm 2 m/S 750 mmHg 82%
    20:00 +28°C° 0.3 mm 2 m/S 750 mmHg 84%
    21:00 +28°C° 0.3 mm 2 m/S 751 mmHg 85%
    22:00 +27°C° 0.3 mm 2 m/S 751 mmHg 87%
    23:00 +27°C° 0.5 mm 1 m/S 751 mmHg 88%

    11 April, Samstag

    Zeit Temperatur Niederschläge Wind Luftdruck Luftfeuchtigkeit
    00:00 +27°C° 0.5 mm 1 m/S 751 mmHg 89%
    01:00 +26°C° 0.5 mm 1 m/S 750 mmHg 90%
    02:00 +26°C° 0.2 mm 1 m/S 750 mmHg 90%
    03:00 +26°C° 0.2 mm 1 m/S 750 mmHg 90%
    04:00 +26°C° 0.2 mm 1 m/S 750 mmHg 91%
    05:00 +26°C° 0 mm 1 m/S 751 mmHg 89%
    06:00 +27°C° 0 mm 1 m/S 751 mmHg 87%
    07:00 +27°C° 0 mm 1 m/S 752 mmHg 85%
    08:00 +30°C° 0 mm 1 m/S 752 mmHg 75%
    09:00 +32°C° 0 mm 1 m/S 752 mmHg 65%
    10:00 +34°C° 0 mm 1 m/S 752 mmHg 56%
    11:00 +36°C° 0 mm 2 m/S 751 mmHg 50%
    12:00 +37°C° 0 mm 2 m/S 750 mmHg 44%
    13:00 +38°C° 0 mm 2 m/S 749 mmHg 39%
    14:00 +38°C° 0 mm 2 m/S 749 mmHg 38%
    15:00 +37°C° 0 mm 1 m/S 748 mmHg 38%
    16:00 +37°C° 0 mm 1 m/S 748 mmHg 38%
    17:00 +35°C° 0 mm 1 m/S 748 mmHg 46%
    18:00 +34°C° 0 mm 2 m/S 749 mmHg 54%
    19:00 +30°C° 0 mm 2 m/S 749 mmHg 62%
    20:00 +30°C° 0 mm 2 m/S 750 mmHg 67%
    21:00 +29°C° 0 mm 2 m/S 750 mmHg 71%
    22:00 +29°C° 0 mm 2 m/S 751 mmHg 76%
    23:00 +28°C° 0 mm 2 m/S 751 mmHg 78%
    Mehr zeigen